Regional Weather Roundup
Issued by NWS

Home | Current Version | Previous Version | Graphics & Text | Print | Product List | Glossary On
Versions: 1 2 3 4 5 6 7 8 9 10 11 12 13 14 15 16 17 18 19 20 21 22 23 24 25 26 27 28 29 30 31 32 33 34 35 36 37 38 39 40 41 42 43 44 45 46 47 48 49 50
000
ASUS43 KBIS 152110
RWRND

NORTH DAKOTA REGIONAL WEATHER ROUNDUP
NATIONAL WEATHER SERVICE BISMARCK ND
300 PM CST MON JAN 15 2018

NOTE: "FAIR" INDICATES FEW OR NO CLOUDS BELOW 12,000 FEET WITH NO
SIGNIFICANT WEATHER AND/OR OBSTRUCTIONS TO VISIBILITY.


NDZ001>003-009>011-017-152200-
NORTHWEST NORTH DAKOTA

CITY           SKY/WX    TMP DP  RH WIND       PRES   REMARKS
WILLISTON      SUNNY     -6 -15  65 W8        30.84F WCI -21
MINOT          SUNNY     -5 -15  62 NW14      30.82F WCI -25
MINOT AFB      SUNNY     -6 -15  64 NW13      30.82S WCI -26
$$

NDZ018>021-031>035-040>046-152200-
SOUTHWEST NORTH DAKOTA

CITY           SKY/WX    TMP DP  RH WIND       PRES   REMARKS
BISMARCK       SUNNY     -4 -15  59 NW18      30.81S WCI -26
DICKINSON      SUNNY     -4 -14  62 NW13      30.72F WCI -23
GARRISON         N/A     -5 -15  62 NW15      30.79F WCI -26
HETTINGER ARPT SUNNY     -4 -14  62 NW18      30.74R WCI -26
$$

NDZ004>008-012>016-024-026-027-054-152200-
NORTHEAST NORTH DAKOTA

CITY           SKY/WX    TMP DP  RH WIND       PRES   REMARKS
GRAND FORKS    BLWGSNOW  -9 -14  78 N28G36    30.74R VSB 1/2 WCI -37
GRND FRKS AFB  CLOUDY    -9 -16  71 N20G26    30.75R BLWGSNOWWCI -33
DEVILS LAKE    FAIR     -10 -16  74 N18G28    30.75S HAZE    WCI -34
$$

NDZ022-023-025-028>030-036>039-047>053-152200-
SOUTHEAST NORTH DAKOTA

CITY           SKY/WX    TMP DP  RH WIND       PRES   REMARKS
FARGO          HAZE     -10 -15  78 N18       30.71S VSB 1   WCI -34
JAMESTOWN      CLOUDY    -7 -12  79 N23       30.70R HAZE    WCI -33
$$





USA.gov is the U.S. government's official web portal to all federal, state and local government web resources and services.